GW5531 Weather Reports


time (UTC)temp
F
wind
direction
speed
knots
gust
knots
rain 1hr
in
rain 24hr
in
rain mn
in
humidity
%
barometer
mb
20260906185913 80 152 0.0 0.0 0.00 0.03 0.01 66 1027.1
20260906184913 79 211 0.0 0.0 0.00 0.03 0.01 67 1027.4
20260906183915 78 201 0.0 0.0 0.00 0.03 0.01 67 1027.6
20260906182913 78 181 0.0 0.0 0.00 0.03 0.01 68 1027.6
20260906181012 78 172 0.0 0.0 0.00 0.03 0.01 70 1027.6
20260906180013 76 210 0.0 0.0 0.00 0.03 0.01 72 1028.0
20260906175111 76 204 0.0 0.0 0.00 0.03 0.01 74 1028.1
20260906174128 75 216 0.0 0.0 0.00 0.03 0.01 74 1028.1
20260906173211 76 154 0.0 0.0 0.00 0.03 0.01 75 1028.2
20260906172214 75 206 0.0 0.0 0.00 0.03 0.01 76 1028.4
20260906171213 75 158 0.0 0.0 0.00 0.03 0.01 75 1028.4
20260906170311 75 202 0.0 0.0 0.00 0.03 0.01 76 1028.5
20260906164410 75 212 0.0 0.0 0.00 0.03 0.01 77 1028.5
20260906163412 75 194 0.0 0.0 0.00 0.03 0.01 76 1028.5
20260906162511 74 200 0.0 0.0 0.00 0.03 0.01 77 1028.6
20260906161512 74 247 0.0 0.0 0.00 0.03 0.01 79 1028.7
20260906160513 73 192 0.0 0.0 0.00 0.03 0.01 81 1028.6
20260906155513 72 200 0.0 0.0 0.00 0.03 0.01 80 1028.5
20260906154512 71 172 0.0 0.0 0.00 0.04 0.01 80 1028.5
20260906153512 70 171 0.0 0.0 0.00 0.04 0.01 82 1028.6
20260906152511 70 218 0.0 0.0 0.00 0.04 0.01 83 1028.5
20260906151513 69 202 0.0 0.0 0.00 0.04 0.01 84 1028.7
20260906145613 68 136 0.0 0.0 0.00 0.04 0.01 85 1028.5
20260906144612 67 178 0.0 0.0 0.01 0.04 0.01 86 1028.5
20260906140811 66 202 0.0 0.0 0.01 0.04 0.01 85 1028.6
20260906132811 64 112 0.0 0.0 0.00 0.03 0.00 86 1028.9
20260906131812 65 112 0.0 0.0 0.00 0.03 0.00 86 1028.9
20260906130813 64 112 0.0 0.0 0.00 0.03 0.00 89 1029.3
20260906125811 63 112 0.0 0.0 0.00 0.03 0.00 89 1028.9
20260906124812 62 112 0.0 0.0 0.00 0.03 0.00 90 1028.7
20260906122812 60 112 0.0 0.0 0.00 0.03 0.00 92 1028.4
20260906121811 59 112 0.0 0.0 0.00 0.03 0.00 93 1028.3
20260906120812 58 112 0.0 0.0 0.00 0.03 0.00 93 1028.1
20260906115814 58 112 0.0 0.0 0.00 0.03 0.00 94 1028.0
20260906114810 58 112 0.0 0.0 0.00 0.04 0.00 93 1028.0
20260906113814 58 90 0.0 0.0 0.00 0.04 0.00 93 1027.9
20260906112812 58 90 0.0 0.0 0.00 0.04 0.00 93 1027.9
20260906111911 58 90 0.0 0.0 0.00 0.04 0.00 93 1028.0
20260906110912 58 110 0.0 0.0 0.00 0.04 0.00 93 1027.8
20260906105913 59 112 0.0 0.0 0.00 0.04 0.00 93 1027.5
20260906104927 59 112 0.0 0.0 0.00 0.04 0.00 93 1027.5
20260906104010 59 112 0.0 0.0 0.00 0.04 0.00 93 1027.2
20260906103013 59 112 0.0 0.0 0.00 0.04 0.00 92 1027.3
20260906095011 59 270 0.0 0.0 0.00 0.04 0.00 93 1027.2
20260906094027 60 201 0.0 0.0 0.00 0.04 0.00 94 1027.0
20260906093111 60 155 0.0 0.0 0.00 0.04 0.00 94 1027.1
20260906092113 60 175 0.0 0.0 0.00 0.04 0.00 94 1027.1
20260906091113 60 135 0.0 0.0 0.00 0.04 0.00 95 1027.1
20260906090210 59 93 0.0 0.0 0.00 0.04 0.00 95 1027.0
20260906084211 59 122 0.0 0.0 0.00 0.04 0.00 96 1027.2
20260906083211 59 135 0.0 0.0 0.00 0.04 0.00 96 1027.4
20260906082311 59 135 0.0 0.0 0.00 0.04 0.00 95 1027.1
20260906081312 60 135 0.0 0.0 0.00 0.05 0.00 96 1027.2
20260906080411 60 135 0.0 0.0 0.00 0.05 0.00 96 1027.2
20260906074512 60 112 0.0 0.0 0.00 0.05 0.00 96 1027.5
20260906072512 61 112 0.0 0.0 0.00 0.05 0.00 96 1027.7
20260906071512 61 112 0.0 0.0 0.00 0.05 0.00 96 1028.0
20260906070514 61 112 0.0 0.0 0.00 0.05 0.00 96 1027.8
20260906065511 61 157 0.0 0.0 0.00 0.05 0.00 95 1027.7
20260906063512 61 112 0.0 0.0 0.00 0.05 0.00 95 1027.5
20260906062511 61 135 0.0 0.0 0.00 0.05 0.00 94 1027.6
20260906060511 61 135 0.0 0.0 0.00 0.05 0.00 94 1027.5
20260906055512 61 139 0.0 0.0 0.00 0.05 0.00 94 1027.4
20260906054511 61 112 0.0 0.0 0.00 0.05 0.00 94 1027.7
20260906053511 61 112 0.0 0.0 0.00 0.06 0.00 93 1027.4
20260906052510 61 112 0.0 0.0 0.00 0.06 0.00 92 1027.7
20260906051511 62 112 0.0 0.0 0.00 0.06 0.00 93 1027.7
20260906050511 62 114 0.0 0.0 0.00 0.06 0.00 91 1027.6
20260906045519 62 112 0.0 0.0 0.00 0.06 0.06 92 1027.7
20260906043617 62 112 0.0 0.0 0.01 0.06 0.06 92 1027.9
20260906042618 62 112 0.0 0.0 0.01 0.06 0.06 92 1027.7
20260906041716 63 112 0.0 0.0 0.01 0.06 0.06 92 1027.9
20260906040718 62 117 0.0 0.0 0.01 0.06 0.06 92 1027.9
20260906035818 63 202 0.0 0.0 0.01 0.06 0.06 92 1028.2
20260906034917 63 166 0.0 0.0 0.01 0.06 0.06 93 1028.0
20260906033917 63 112 0.0 0.0 0.00 0.05 0.05 92 1027.9
20260906032917 63 112 0.0 0.0 0.00 0.05 0.05 92 1027.6
20260906031917 63 112 0.0 0.0 0.00 0.05 0.05 93 1027.6
20260906030916 63 142 0.0 0.0 0.00 0.06 0.05 93 1027.5
20260906025917 63 133 0.0 0.0 0.00 0.06 0.05 94 1027.3
20260906024918 63 112 0.0 0.0 0.00 0.06 0.05 94 1027.2
20260906023918 63 112 0.0 0.0 0.00 0.06 0.05 94 1026.9
20260906022917 63 112 0.0 0.0 0.00 0.06 0.05 94 1026.7
20260906021917 63 112 0.0 0.0 0.00 0.06 0.05 94 1026.6
20260906015917 63 115 0.0 0.0 0.00 0.06 0.05 93 1026.6
20260906014919 63 112 0.0 0.0 0.00 0.06 0.05 94 1026.3
20260906013917 63 67 0.0 0.0 0.00 0.06 0.05 94 1026.3
20260906012916 63 90 0.0 0.0 0.00 0.06 0.05 93 1026.2
20260906011917 63 112 0.0 0.0 0.00 0.06 0.05 93 1025.9
20260906010920 64 112 0.0 0.0 0.00 0.06 0.05 93 1026.1
20260906010017 64 112 0.0 0.0 0.00 0.07 0.05 93 1026.3
20260906005019 64 112 0.0 0.0 0.00 0.07 0.05 92 1026.3
20260906004017 64 112 0.0 0.0 0.00 0.07 0.05 92 1026.2
20260906003017 64 112 0.0 0.0 0.00 0.07 0.05 92 1026.1
20260906001118 64 138 0.0 0.0 0.00 0.07 0.05 91 1026.0
20260906000118 64 127 0.0 0.0 0.00 0.07 0.05 91 1025.9
20260905235118 65 116 0.0 0.0 0.00 0.07 0.05 92 1026.2
20260905234118 65 125 0.0 0.0 0.00 0.07 0.05 92 1026.1
20260905232217 66 112 0.0 0.0 0.00 0.07 0.05 91 1026.6
20260905230317 67 118 0.0 0.0 0.00 0.07 0.05 91 1026.5
20260905225317 67 154 0.0 0.0 0.00 0.07 0.05 90 1026.5
20260905224416 67 184 0.0 0.0 0.00 0.08 0.05 91 1026.5
20260905223418 67 112 0.0 0.0 0.00 0.08 0.05 91 1026.5
20260905222418 67 141 0.0 0.0 0.00 0.08 0.05 90 1026.6
20260905221516 67 172 0.0 0.0 0.00 0.08 0.05 91 1026.8
20260905220517 67 118 0.0 0.0 0.00 0.08 0.05 90 1026.6
20260905215517 67 112 0.0 0.0 0.00 0.08 0.05 90 1026.6
20260905214615 68 112 0.0 0.0 0.00 0.08 0.05 90 1026.8
20260905213616 68 157 0.0 0.0 0.01 0.08 0.05 90 1026.9
20260905211619 68 147 0.0 0.0 0.01 0.08 0.05 89 1027.4
20260905205718 68 119 0.0 0.0 0.01 0.09 0.05 89 1027.3
20260905204715 68 135 0.0 0.0 0.01 0.09 0.05 89 1027.3
20260905201716 68 112 0.0 0.0 0.00 0.08 0.04 90 1027.1
20260905195718 68 112 0.0 0.0 0.00 0.08 0.04 90 1027.5
20260905194815 67 147 0.0 0.0 0.00 0.08 0.04 91 1027.3
20260905192817 67 112 0.0 0.0 0.00 0.09 0.04 92 1027.5
20260905191915 67 112 0.0 0.0 0.00 0.09 0.04 92 1027.5